Theta_e
316 317 317 317 317 317 317 318 318 319 319 319 319 320 319 318 318 319 320 320 320 320 319 320 320 314 316 319 320 318 312 304 301 299 298 302 313 319 319 318 319 318 316 308 306 304 301 302 301 303 304 303 300 301 301 301 300 304 298 295 291 291 289 291 290 292 294 291 292 292 294 294 291 294 294 297 294 293 292 291 292 293 293 293 293 294 294 294
316 317 317 317 318 318 318 318 319 318 320 319 320 319 319 319 319 318 320 321 321 320 319 319 318 315 312 318 319 318 307 307 299 298 297 309 316 318 319 318 317 317 310 305 302 301 300 299 300 303 302 298 303 299 303 298 302 297 295 294 288 290 289 293 292 293 292 290 292 292 293 293 291 293 295 292 291 292 290 290 291 289 290 292 292 292 292 293
316 316 317 317 318 318 318 318 319 319 319 319 319 319 319 319 319 320 319 319 320 321 318 318 317 314 314 318 316 313 306 305 299 295 299 313 316 318 318 318 316 315 303 302 302 301 299 298 300 301 300 297 298 296 300 296 300 295 295 288 287 291 290 292 293 292 293 293 291 291 292 291 292 293 296 291 289 290 288 288 288 288 288 289 290 291 291 291
316 316 316 317 318 318 318 318 318 318 319 319 319 319 320 320 320 319 319 319 320 320 318 317 315 313 315 315 315 307 306 303 293 296 302 313 316 317 316 316 315 310 304 305 303 301 301 302 301 301 298 296 296 298 294 295 296 293 293 289 289 292 289 290 292 292 293 294 292 291 292 290 291 292 293 291 289 288 288 289 288 287 288 289 290 290 290 290
315 316 316 317 317 318 318 318 318 317 318 318 319 319 320 321 320 320 319 319 319 320 317 315 314 316 313 311 305 310 302 294 293 300 302 313 316 317 314 314 312 307 304 305 304 303 302 301 300 298 297 293 296 294 292 294 295 292 289 291 291 291 288 290 291 292 292 293 292 291 290 289 293 292 290 290 287 285 287 289 290 289 289 289 289 290 291 289
315 315 315 316 317 318 318 319 318 318 318 317 318 318 319 319 321 320 320 319 319 320 316 315 313 311 315 312 308 307 301 284 295 298 309 312 314 314 313 313 312 306 306 304 302 302 301 300 299 295 293 292 292 290 292 294 296 287 289 289 291 291 289 290 291 290 292 291 291 289 290 292 290 288 290 289 287 288 291 291 290 290 290 290 290 290 289 289
314 314 315 315 316 317 317 318 318 319 319 317 317 318 318 318 319 320 320 320 319 320 314 314 313 315 312 314 305 301 294 293 297 302 308 311 312 310 311 308 309 304 303 301 301 300 299 298 297 294 293 291 291 290 292 292 294 290 285 289 288 290 288 290 289 291 291 291 289 291 293 290 290 286 290 288 289 290 291 291 291 291 291 291 289 289 288 289
313 314 314 314 315 316 316 317 318 318 319 319 317 317 318 318 318 319 319 319 319 320 319 314 312 311 313 306 304 295 293 291 297 302 306 308 303 303 306 303 301 303 301 299 300 299 298 295 294 296 293 290 291 291 292 291 292 288 286 289 289 290 290 290 290 290 290 290 292 291 289 288 289 288 289 287 289 290 290 291 291 291 291 290 290 289 289 289
313 313 313 314 315 315 316 316 317 318 318 319 319 317 316 317 317 318 319 319 319 319 318 317 316 314 303 308 299 294 290 297 299 301 301 298 299 300 302 299 301 302 300 300 300 301 299 295 295 296 290 291 294 292 293 291 286 289 288 290 289 289 290 291 290 290 290 291 292 289 287 289 289 291 287 288 289 290 291 290 290 290 289 289 289 289 289 289
312 313 313 313 314 314 315 316 317 317 317 318 318 318 317 316 317 317 318 318 319 318 317 317 316 312 311 304 300 290 295 298 301 301 299 298 299 300 300 299 300 301 300 298 298 298 298 296 295 296 295 293 294 291 293 292 287 291 290 290 289 289 290 291 289 289 291 290 292 289 287 287 291 289 284 289 290 291 290 289 290 289 288 289 289 289 290 289
312 313 313 313 313 314 315 315 316 317 317 316 317 317 317 316 316 317 317 317 318 317 313 314 315 309 302 303 294 289 298 299 301 301 299 299 300 298 297 298 299 300 301 299 297 296 296 299 301 299 295 291 292 290 291 289 292 291 291 291 290 291 291 291 291 289 291 288 290 290 287 289 289 288 285 287 290 290 288 288 288 289 288 289 289 289 290 290
312 312 313 313 313 314 315 315 316 316 316 316 316 316 316 316 315 316 317 317 316 316 312 308 307 310 305 297 292 292 301 299 301 300 300 299 299 298 300 298 299 299 300 298 298 299 298 300 299 297 290 297 288 291 289 291 292 290 292 288 289 290 289 289 288 289 290 289 289 289 290 286 286 284 287 288 289 289 288 287 288 288 288 289 289 289 289 289
312 312 313 313 313 313 314 315 315 316 315 315 315 316 316 314 313 315 316 318 315 315 312 310 307 308 301 293 293 299 300 301 301 300 299 300 302 299 300 300 301 300 299 299 298 299 300 300 299 293 294 293 290 289 291 293 291 292 292 290 289 289 287 288 290 290 289 289 289 288 284 284 284 286 287 289 289 288 287 287 287 288 288 288 288 289 289 289
312 312 312 313 313 313 314 314 314 315 315 314 314 315 316 313 312 313 314 314 314 315 310 309 311 308 299 292 297 301 301 303 302 299 297 300 300 302 300 303 302 300 301 300 300 300 302 301 298 295 296 292 290 295 292 292 292 289 288 291 287 286 284 288 288 288 288 288 290 289 284 284 285 286 288 289 289 288 286 287 287 287 287 288 288 288 288 289
311 312 312 312 313 313 314 313 313 314 314 313 314 314 314 311 311 311 312 315 314 313 314 309 309 305 295 293 301 299 306 304 299 297 298 297 297 297 297 299 300 300 299 300 299 300 304 304 300 294 291 293 294 292 289 289 289 288 287 284 287 286 285 286 289 287 285 289 290 289 285 284 285 286 288 289 288 288 286 287 287 287 287 288 288 288 288 288
311 312 311 312 312 312 313 313 313 312 312 313 313 314 313 312 309 310 311 312 311 311 309 311 303 302 296 292 297 307 299 295 295 299 299 297 297 296 296 298 300 304 300 300 302 302 303 300 293 292 292 294 292 290 288 288 287 288 287 284 284 285 285 286 287 289 287 285 289 287 285 283 283 287 288 289 288 287 286 286 287 287 287 288 288 288 288 288
311 311 311 312 311 312 312 312 311 312 312 312 312 313 316 315 309 307 309 307 304 307 308 300 303 301 292 299 305 297 293 296 299 299 298 298 297 297 298 299 297 298 303 303 302 304 299 298 293 294 295 289 289 291 286 284 283 284 286 283 282 282 284 284 286 289 288 287 287 288 287 284 286 286 287 288 288 287 286 286 286 287 288 288 288 288 288 288
311 311 311 311 311 311 311 310 310 310 310 310 310 312 314 313 310 308 307 307 304 303 301 305 298 299 292 302 289 291 296 294 297 296 298 298 295 298 298 295 294 298 300 301 299 296 296 295 297 290 291 288 287 287 285 280 282 283 283 283 282 283 283 283 283 285 287 287 286 286 286 284 285 286 287 287 288 287 286 287 287 287 287 288 288 288 288 288
310 311 311 311 311 311 311 309 310 309 308 308 312 309 309 308 308 305 300 302 304 299 296 293 293 288 284 290 296 296 295 297 296 297 295 296 297 298 299 299 296 297 293 293 291 294 294 294 295 289 285 284 282 282 282 282 283 282 283 283 283 283 282 282 284 287 286 284 284 284 284 283 284 285 286 287 288 287 287 287 287 287 287 288 288 288 288 288
310 310 310 310 310 310 311 308 309 309 307 305 307 306 306 302 303 299 298 297 291 292 292 293 292 294 297 295 292 295 298 295 295 297 297 297 296 299 296 296 295 295 291 289 290 290 292 287 284 283 283 283 283 282 281 283 284 285 285 285 283 283 282 284 285 287 287 284 283 283 283 283 284 284 286 287 287 287 287 286 287 287 287 287 288 288 288 288
309 310 310 310 310 310 311 308 308 307 306 303 307 305 296 294 298 290 291 291 291 292 293 293 292 291 293 294 295 293 292 295 297 295 296 298 294 295 292 295 294 290 287 285 287 292 295 286 283 282 282 282 282 282 282 282 284 285 285 285 283 285 283 284 285 287 287 284 283 282 282 283 284 285 286 287 286 285 286 286 286 287 287 288 288 287 288 289
309 309 310 309 309 309 310 308 306 306 306 305 302 296 294 294 295 294 295 290 292 293 293 291 291 293 295 294 295 293 292 292 297 294 297 299 296 295 291 292 289 286 288 286 289 289 285 282 282 283 283 282 282 282 282 283 285 286 285 285 284 284 284 286 285 286 286 284 284 283 282 283 284 285 286 286 286 287 288 288 287 287 287 287 288 288 288 288
308 309 309 309 308 309 309 307 303 305 303 301 298 296 296 297 296 296 294 294 290 291 293 292 292 292 293 295 294 294 292 287 287 293 292 296 295 290 291 289 287 287 289 291 287 286 283 283 283 283 282 281 282 283 283 284 286 286 285 284 282 283 282 282 285 285 286 284 284 283 282 284 285 286 286 287 287 287 288 288 288 289 288 287 288 288 288 288
308 309 309 308 307 308 310 306 303 301 297 298 296 296 297 295 296 296 294 288 289 289 293 291 290 291 291 291 293 292 291 289 290 288 295 294 290 289 290 288 287 286 284 286 286 284 281 282 284 281 282 282 282 283 284 285 284 284 285 284 283 282 283 282 283 284 285 284 284 283 282 282 285 283 283 286 288 287 287 288 288 288 289 290 290 290 289 288
309 309 308 308 306 307 308 305 298 295 293 297 296 297 295 295 296 296 294 286 290 291 292 294 289 291 292 295 297 292 288 290 289 290 294 292 290 291 288 286 288 283 284 285 287 284 282 284 283 281 282 282 282 283 281 283 283 283 282 282 281 281 280 282 282 283 283 282 283 282 278 281 285 284 284 286 286 285 287 286 286 287 288 288 288 288 289 290
308 308 308 308 306 306 305 299 294 294 297 293 295 295 294 294 295 293 293 286 284 287 296 289 296 291 295 293 293 288 289 288 289 292 294 292 291 289 288 287 289 284 283 285 284 284 283 284 282 281 282 283 283 282 281 281 283 281 280 281 282 281 280 281 281 282 279 279 282 282 278 277 285 282 284 285 285 284 286 285 286 287 287 288 288 288 289 289
308 309 308 307 305 304 299 294 291 292 296 292 295 294 295 295 294 296 292 286 283 286 286 293 293 290 296 291 291 291 285 287 295 292 292 294 290 293 288 285 288 285 285 284 286 281 284 285 283 282 282 283 283 282 281 281 281 281 280 282 281 280 280 281 281 282 282 284 285 281 283 278 278 284 285 285 284 284 284 285 285 286 287 287 288 288 289 289
308 308 307 307 304 302 296 294 295 294 291 292 293 294 294 293 294 294 292 276 276 289 285 290 291 298 295 291 294 290 287 289 288 291 292 293 292 293 290 284 284 284 284 285 282 282 283 282 282 282 283 283 281 281 282 282 281 281 281 282 281 281 281 281 281 283 283 280 279 282 282 278 278 283 282 283 281 282 283 284 285 286 287 287 288 288 289 289
308 308 307 306 302 301 299 298 297 294 296 294 292 295 294 295 294 292 286 277 282 284 294 287 296 293 290 295 291 288 288 289 285 289 293 294 294 290 287 285 285 284 284 284 283 283 283 283 283 282 283 281 282 283 283 282 281 282 282 283 282 282 282 282 283 283 282 278 277 280 281 277 278 284 282 281 281 282 283 285 286 286 287 287 287 288 289 289
307 306 306 305 304 301 298 298 296 297 297 293 293 294 296 295 293 287 279 272 283 280 288 289 290 285 287 288 287 288 287 286 286 288 290 286 290 292 286 286 286 286 285 287 285 283 283 285 286 284 282 282 283 283 282 282 281 283 282 282 282 282 282 282 283 282 280 274 278 276 278 278 275 282 283 281 283 284 285 285 286 287 287 288 288 288 289 289
307 306 305 305 300 296 295 295 294 295 295 294 295 297 295 293 289 283 270 278 286 285 287 284 283 287 283 285 284 286 286 285 286 287 287 289 288 289 288 285 290 284 284 285 282 283 283 284 284 284 285 284 283 282 282 282 282 282 282 281 281 280 280 280 279 281 275 275 275 277 276 278 273 279 282 285 284 283 284 284 285 285 286 287 288 288 288 288
306 305 305 303 301 297 296 293 296 294 292 292 294 293 292 286 288 281 277 287 279 282 283 283 283 280 282 282 281 281 281 285 284 284 282 282 281 281 280 279 278 281 281 280 281 283 282 282 282 283 284 282 283 281 282 283 284 284 281 282 278 277 277 274 275 273 274 275 275 276 277 274 275 280 284 283 284 285 286 285 286 286 286 287 288 288 288 288
305 303 304 301 302 300 298 298 298 296 293 296 294 293 289 286 275 279 277 279 279 279 282 283 283 282 279 281 281 280 282 281 284 284 283 282 282 280 282 281 279 279 278 280 280 281 281 280 282 282 282 284 284 281 281 281 283 281 280 278 277 274 272 270 274 272 273 275 275 275 277 273 280 283 283 283 284 283 282 284 285 286 287 287 287 288 287 288
304 301 302 299 297 297 298 297 294 294 296 296 293 291 288 280 276 282 275 280 278 281 282 281 282 281 281 282 280 279 282 280 282 283 284 280 281 280 282 282 282 281 281 281 279 277 278 279 280 281 280 283 283 282 281 279 281 281 280 279 278 276 272 269 272 272 273 274 276 276 274 275 278 280 281 282 282 282 283 283 286 287 288 287 287 287 287 287
302 299 299 298 298 296 296 294 294 296 296 296 293 290 281 279 276 278 279 278 279 280 283 279 280 281 280 280 279 280 281 280 281 281 281 281 279 279 277 279 281 281 279 279 277 277 277 278 280 281 282 282 281 281 281 281 279 280 281 281 279 276 279 273 272 272 271 272 273 273 275 281 280 281 282 282 283 283 283 284 285 285 285 285 285 285 286 286
301 301 299 298 297 296 295 295 295 295 297 298 294 282 283 280 280 280 280 282 282 281 281 281 281 281 279 282 278 279 282 281 281 281 278 279 279 279 279 280 279 279 278 278 277 277 278 278 279 281 281 281 281 281 281 282 276 281 281 278 277 281 277 274 269 266 266 269 271 278 277 280 283 281 281 282 282 282 282 282 283 283 284 284 284 285 285 286
299 299 296 297 297 296 295 295 295 295 296 295 291 282 279 276 278 279 283 282 282 281 279 280 280 280 277 277 280 280 281 281 280 281 278 278 278 279 279 280 281 280 280 279 278 279 275 278 280 280 279 280 281 281 282 282 282 282 278 279 281 278 277 275 272 271 271 269 272 274 274 277 276 276 281 281 280 281 282 282 282 283 283 283 284 285 286 286
297 298 296 296 295 295 295 293 294 296 296 291 283 282 275 278 279 282 282 282 282 280 280 281 279 279 278 280 279 279 281 280 280 280 277 278 277 281 279 279 281 280 281 282 278 277 278 275 278 278 279 281 281 282 281 282 284 281 279 283 277 274 273 275 272 268 268 268 269 273 274 274 276 278 281 280 280 281 282 283 282 282 283 283 284 285 286 286
294 294 293 295 294 294 294 294 295 298 295 285 280 284 278 278 280 280 283 283 280 281 281 278 278 278 279 280 279 278 277 280 278 277 277 278 277 280 280 280 279 281 281 281 280 279 279 275 278 278 279 280 281 281 277 279 282 280 282 280 280 278 275 273 274 272 272 268 267 270 271 273 279 279 279 280 280 280 280 281 281 282 283 283 283 284 285 286
293 292 293 294 293 293 294 295 294 291 290 285 279 277 278 278 282 282 280 282 281 282 280 280 276 278 278 278 278 279 278 279 280 279 279 279 278 281 280 282 279 280 281 281 279 280 278 277 274 280 278 278 278 278 278 278 277 279 279 278 277 277 278 277 274 273 272 269 268 267 267 274 279 281 280 280 280 280 280 280 281 282 283 284 285 285 286 286
289 292 293 294 293 293 296 292 284 280 279 274 276 276 276 280 282 282 282 281 282 282 282 281 280 280 277 278 279 276 279 279 279 279 279 278 279 278 282 281 280 279 280 279 281 280 276 276 274 277 278 279 278 279 277 277 278 278 278 277 277 276 274 271 270 273 270 270 268 266 267 274 280 281 281 280 281 281 281 281 282 283 283 284 284 285 285 285
292 285 291 293 292 295 296 288 279 275 280 280 280 279 282 286 283 282 282 280 282 282 283 281 280 278 277 276 277 277 278 279 279 279 278 279 279 279 280 279 280 280 279 278 278 280 278 277 275 274 277 277 277 278 278 277 276 277 278 278 278 277 275 273 267 270 270 272 269 269 265 271 279 281 281 281 281 281 281 282 282 283 283 284 284 285 285 286
289 290 292 291 292 294 291 282 282 280 278 278 281 282 281 282 282 282 281 281 280 281 280 281 280 279 278 278 275 273 275 279 278 279 279 279 279 281 280 278 279 280 281 279 279 279 280 275 274 276 277 276 277 277 275 275 276 273 274 274 276 276 276 275 274 273 271 271 269 269 265 272 280 282 281 281 281 282 283 284 283 283 284 284 284 285 285 285
287 288 294 295 291 297 293 283 281 277 278 277 279 280 282 282 282 281 281 281 279 282 281 279 280 280 279 277 276 275 277 276 277 278 279 276 280 280 280 279 279 280 279 280 278 280 275 276 274 273 274 275 274 275 276 274 274 276 277 277 276 275 272 269 269 271 269 271 272 270 266 273 279 281 282 281 281 282 283 284 284 283 284 284 284 284 285 285
287 287 287 293 292 293 290 282 283 277 279 277 275 277 280 281 281 281 280 281 281 281 281 280 280 281 279 279 277 277 274 277 275 276 278 278 280 279 280 278 279 280 281 283 282 282 277 276 275 271 268 268 269 270 272 274 276 277 276 276 275 275 270 271 271 270 267 271 272 269 270 277 281 282 281 282 282 282 283 283 284 284 283 283 284 284 284 285
288 284 287 290 287 287 283 283 283 281 277 275 276 277 279 279 281 281 281 281 281 281 281 281 281 282 279 279 277 275 275 276 276 274 277 276 278 278 278 278 277 280 284 283 282 281 275 273 274 275 274 274 276 276 276 277 275 272 274 273 275 275 276 275 273 270 268 271 269 272 273 274 276 278 279 280 281 281 281 282 282 282 283 284 284 284 284 284
286 286 282 284 287 285 281 282 280 282 282 281 280 277 276 278 279 280 281 279 282 282 281 281 280 280 278 278 277 277 276 276 275 275 276 277 278 277 276 277 277 282 284 282 282 278 272 274 274 271 273 276 278 274 275 275 272 274 274 274 276 275 275 273 271 270 275 270 267 274 275 273 275 277 279 280 281 281 281 281 282 282 283 283 283 284 285 284
286 281 281 280 281 282 285 282 280 279 279 282 278 278 278 278 277 278 280 281 282 282 280 280 281 281 281 280 279 278 276 276 274 276 276 275 276 277 277 278 279 280 282 278 280 279 275 273 272 270 270 274 276 275 276 274 274 274 274 274 273 275 275 271 272 274 275 270 268 274 275 273 275 278 279 280 280 280 281 281 282 283 283 283 283 283 283 283
284 281 281 280 282 276 280 278 278 279 279 279 280 279 278 278 279 279 279 280 280 281 280 278 279 281 280 279 280 279 277 277 276 275 276 275 276 276 276 276 278 280 277 277 275 274 276 274 273 272 271 274 275 276 276 274 273 273 273 274 275 274 274 274 273 275 274 272 274 274 274 274 276 277 279 280 282 282 282 282 282 282 282 282 282 282 282 283
285 286 282 280 279 276 277 280 279 281 281 282 279 279 280 279 279 278 279 280 279 279 281 279 280 280 280 278 279 280 279 280 280 279 279 277 274 277 278 279 278 279 278 276 276 276 275 273 275 272 271 272 275 274 273 273 273 271 273 274 275 275 274 274 274 274 274 273 274 273 273 273 278 280 280 282 282 282 282 281 281 282 282 282 282 282 283 283
287 286 286 285 282 279 279 280 281 282 282 281 281 278 279 279 280 281 280 281 280 280 280 280 280 278 278 278 278 279 281 280 280 281 280 279 279 280 278 278 282 276 277 274 275 274 275 273 269 270 270 271 271 271 273 272 272 271 271 273 274 272 269 272 272 274 273 272 274 273 272 273 278 281 281 281 281 280 280 281 281 282 283 283 282 282 282 283
287 286 285 287 283 284 282 278 279 279 282 283 282 280 281 282 281 281 280 281 280 281 282 281 281 282 278 278 279 281 283 281 283 283 283 283 283 281 282 282 282 280 277 277 274 275 275 274 272 272 270 270 271 271 269 270 269 271 272 274 276 275 274 275 276 276 275 276 273 271 273 279 280 281 280 280 281 281 281 282 282 283 283 283 282 282 283 283
Wind_Speed
16 16 15 15 15 15 14 14 14 14 13 13 13 13 12 12 13 12 12 12 13 14 15 14 13 14 6 7 7 4 2 7 19 24 28 20 21 27 28 28 26 25 24 12 14 12 8 9 9 6 4 6 5 4 3 9 6 3 5 9 10 7 8 6 6 6 9 9 8 7 5 10 13 8 7 10 19 19 18 19 14 14 13 10 8 7 7 9
17 16 16 15 15 15 15 14 14 14 13 13 12 12 11 12 11 12 11 11 12 13 14 15 17 15 4 1 3 5 0 6 16 21 22 23 28 28 29 27 25 22 18 10 12 11 9 9 7 7 8 8 4 7 2 6 8 9 7 9 10 6 5 3 7 8 9 11 11 11 10 11 12 6 4 13 14 13 17 17 13 14 13 11 10 10 11 10
17 16 16 16 15 15 15 15 14 14 13 12 12 11 11 11 11 11 11 11 11 12 13 13 18 18 6 5 5 3 3 5 9 27 20 30 30 28 28 27 24 20 7 5 5 6 7 4 6 11 8 10 10 9 11 6 6 13 7 12 11 8 12 13 11 13 12 13 14 14 13 17 12 9 7 17 14 16 18 10 12 13 13 12 11 11 11 12
17 17 16 16 16 15 15 15 15 15 14 13 13 12 11 11 11 12 12 12 12 12 14 12 11 17 10 7 2 3 2 6 17 14 19 31 31 28 27 26 24 16 6 2 4 3 2 4 12 13 11 13 9 12 14 8 5 6 10 9 9 8 12 10 10 9 10 12 14 14 12 18 16 13 5 5 12 16 13 12 10 10 10 10 10 11 10 10
17 17 17 16 16 16 15 15 15 15 15 15 14 13 13 12 12 13 13 13 14 13 14 12 4 9 12 3 2 2 3 5 9 15 21 31 30 28 26 21 21 14 6 4 2 4 6 9 15 14 11 10 11 18 13 15 12 12 15 12 11 10 14 9 9 9 9 7 11 10 11 10 8 18 18 14 14 9 8 9 8 8 8 8 8 7 8 10
17 17 17 17 16 16 16 15 15 15 15 16 15 15 14 13 13 12 13 13 14 14 15 12 2 6 15 22 11 5 2 8 10 16 25 29 28 26 25 19 17 9 13 16 10 14 15 13 16 10 8 14 14 14 8 6 4 18 12 14 13 9 13 8 10 8 6 10 11 13 12 13 14 14 15 16 17 11 9 8 8 8 8 8 8 8 9 10
17 17 17 17 16 16 16 15 15 15 15 16 17 16 15 14 13 13 13 13 14 13 16 11 6 3 8 6 2 19 17 5 9 16 26 26 25 23 24 16 20 16 18 17 16 13 16 17 17 13 16 19 18 19 20 20 17 21 12 14 16 15 17 13 13 11 12 15 16 14 12 12 9 19 10 16 13 11 10 9 8 8 8 8 10 9 11 10
16 16 16 16 16 16 15 15 14 14 14 14 15 16 16 15 13 13 13 13 14 13 12 13 5 1 3 4 4 14 15 10 16 16 23 24 21 20 19 16 19 13 16 14 13 14 14 16 11 12 15 13 7 17 18 24 18 17 16 13 14 14 14 12 11 12 13 15 12 14 19 16 16 13 11 15 12 10 10 9 9 8 8 9 10 10 10 12
16 16 16 15 15 15 15 15 14 14 14 14 14 15 16 15 14 13 12 12 13 13 14 15 12 4 4 1 5 13 11 11 10 16 19 19 17 14 17 14 16 11 10 14 15 14 12 12 18 10 11 14 7 14 3 20 13 13 18 15 14 14 13 12 13 11 9 5 8 19 14 8 7 10 17 11 10 8 8 8 8 8 9 9 10 10 10 11
15 15 15 15 15 15 15 14 14 15 14 14 15 15 14 15 13 11 10 10 11 12 11 11 15 14 5 1 5 17 4 5 10 15 18 16 13 12 18 15 17 13 12 14 15 15 12 11 13 7 13 16 13 14 16 20 13 14 18 16 16 12 11 9 12 10 11 13 11 16 12 11 7 5 8 8 8 6 6 8 8 8 10 10 9 8 8 10
15 15 15 15 14 15 14 14 14 14 14 14 14 14 14 14 12 9 8 7 8 8 9 6 7 10 13 4 18 10 2 8 10 12 16 15 11 13 12 12 13 11 9 13 11 8 4 4 3 6 13 8 18 16 20 12 14 16 18 17 16 14 12 8 7 6 2 7 6 15 15 13 10 12 8 5 6 6 6 7 7 7 8 8 8 8 8 8
16 16 15 15 15 15 14 14 14 13 13 13 13 13 14 13 10 8 8 6 9 8 7 4 3 1 2 17 15 6 3 6 6 11 11 13 8 4 3 6 8 11 12 9 11 9 5 3 4 6 9 3 18 17 12 4 3 4 4 15 12 10 11 13 7 6 3 6 3 5 8 12 12 7 6 5 5 4 5 6 6 7 7 7 7 7 7 8
17 17 16 16 16 15 15 14 14 13 12 11 11 10 12 13 8 8 8 6 8 6 6 4 3 1 3 17 5 1 3 5 3 10 13 13 8 2 1 4 7 8 9 10 7 9 7 4 16 13 8 4 3 5 7 2 3 2 6 8 10 7 9 13 5 7 3 3 6 2 3 4 4 4 4 3 3 3 5 5 5 5 5 5 6 6 7 7
18 18 18 17 17 16 15 15 15 14 13 11 10 10 12 12 7 8 8 5 6 6 3 9 4 5 7 6 3 2 4 3 5 15 18 13 12 4 2 5 4 6 5 8 6 8 6 9 15 12 6 10 9 3 7 3 4 5 0 2 3 2 4 8 7 10 2 3 5 3 2 4 3 3 3 3 3 3 5 5 5 4 4 5 5 6 7 8
18 18 19 18 18 18 17 16 17 16 14 12 10 9 11 13 6 7 8 5 10 9 2 2 5 1 8 4 3 2 5 5 11 13 11 14 12 8 12 12 7 6 2 6 4 7 5 9 12 10 8 2 2 4 8 4 3 3 2 4 1 1 3 2 8 10 3 1 6 5 2 4 6 6 5 3 3 2 4 4 4 3 4 4 4 6 7 7
18 18 19 19 18 18 18 17 17 17 15 12 10 7 7 13 6 6 7 5 7 7 3 4 9 5 9 6 4 0 4 12 14 9 6 7 6 5 10 9 7 2 3 5 1 2 8 14 10 4 3 2 7 6 7 6 3 4 3 4 2 1 3 3 7 8 5 5 2 5 0 6 4 6 5 3 3 2 2 3 3 3 3 3 4 4 5 6
19 19 19 19 18 18 17 18 17 16 14 12 9 4 3 9 11 3 7 8 5 4 7 5 3 2 6 2 3 6 8 5 3 7 10 3 3 6 6 5 4 10 5 2 10 5 8 7 3 1 8 7 2 1 7 5 4 4 4 4 3 2 1 2 1 10 10 4 2 2 4 5 5 9 7 5 5 4 3 3 3 2 1 2 3 3 4 4
19 19 19 19 18 18 18 18 18 16 15 10 4 3 2 7 13 13 7 4 3 7 6 6 2 0 5 3 7 11 10 6 10 9 6 6 1 8 8 7 4 4 4 1 6 9 5 5 3 10 8 11 11 6 1 5 2 3 4 5 4 3 6 4 3 8 10 4 2 2 4 6 7 8 8 8 6 5 5 4 3 3 2 1 2 2 3 3
19 19 19 19 18 17 16 18 17 16 14 5 1 1 2 1 1 11 13 7 3 4 3 10 9 5 3 9 5 7 6 3 6 6 15 11 6 2 2 1 1 4 1 4 6 6 5 2 1 11 10 10 10 9 7 4 3 3 2 4 3 3 2 2 3 4 7 5 2 2 2 6 7 8 8 8 7 7 6 5 4 4 4 3 3 3 2 2
20 19 19 19 18 17 15 16 17 15 13 1 2 0 0 1 3 4 9 14 12 5 4 2 1 2 2 4 10 12 8 2 4 10 12 7 6 5 6 6 2 7 5 3 4 7 4 9 9 5 5 4 4 5 4 4 4 2 4 5 4 5 4 2 2 3 2 4 1 3 2 4 8 9 9 8 7 7 7 7 6 5 5 4 3 3 2 2
20 20 19 19 18 16 14 15 17 11 11 3 3 4 2 2 1 4 3 6 1 3 4 2 3 2 3 5 7 11 6 2 2 12 13 10 3 3 8 6 3 5 6 2 1 2 3 13 6 4 4 3 3 3 1 3 3 2 3 2 3 2 2 1 3 4 2 3 2 2 3 6 8 8 9 9 9 11 10 9 8 7 6 5 5 4 4 3
19 19 19 19 17 14 10 12 17 6 9 6 10 8 4 2 2 3 1 5 3 3 1 1 3 2 1 3 0 2 4 4 4 19 13 15 10 1 5 6 8 7 4 1 1 2 10 8 1 2 2 2 2 1 1 2 1 1 1 1 1 2 4 3 2 3 2 4 3 4 6 9 11 11 10 11 12 10 10 10 9 8 8 6 6 6 5 4
19 19 19 18 17 13 7 7 10 13 5 7 6 4 3 0 2 2 2 6 5 1 2 3 4 4 5 4 0 3 4 14 6 13 16 14 5 11 5 6 9 6 9 7 2 4 8 4 5 2 1 2 2 0 1 2 1 1 1 3 2 3 4 0 3 4 2 3 4 4 9 9 10 12 13 14 13 11 10 10 10 8 9 9 8 7 6 6
19 19 19 18 17 14 5 4 3 9 10 8 8 3 1 1 2 3 1 1 2 1 3 1 1 1 4 6 5 7 6 3 3 15 12 8 6 5 3 7 9 9 10 11 13 11 7 5 4 2 1 1 3 3 0 2 1 2 2 2 1 2 1 3 3 5 4 2 3 2 8 11 12 13 13 14 14 12 12 11 11 10 9 8 5 5 7 7
19 20 19 18 18 12 4 3 6 4 3 2 6 1 0 1 2 2 1 1 1 2 3 2 1 3 4 3 2 1 2 3 5 3 5 7 7 2 4 1 2 5 3 5 7 10 8 6 1 2 2 1 1 2 5 3 3 3 2 2 1 0 4 4 5 5 4 5 4 4 6 4 5 14 15 11 11 14 14 14 15 14 12 10 10 10 9 8
18 19 19 18 18 10 5 2 2 1 0 4 2 1 1 1 2 1 1 1 1 5 1 6 3 3 4 3 6 2 3 4 2 4 4 5 2 2 3 3 4 4 1 3 7 5 4 2 3 2 3 3 3 3 2 4 2 4 2 1 1 2 4 5 5 3 4 5 3 2 4 8 3 6 11 12 14 17 13 15 14 13 12 11 10 9 9 9
18 18 18 17 19 8 1 2 0 2 2 2 2 1 1 2 1 2 1 0 1 3 4 2 1 3 1 3 5 4 0 5 1 2 4 4 4 1 2 3 1 4 2 0 3 5 1 4 3 2 0 0 2 1 2 4 3 1 2 2 2 5 7 6 5 6 6 3 3 5 5 8 11 6 2 6 12 13 14 14 14 13 12 11 10 9 9 8
18 17 17 13 15 14 4 5 1 3 2 2 1 1 1 2 2 2 0 1 0 4 3 4 2 3 4 6 11 7 4 9 2 3 5 6 3 1 6 5 5 2 0 3 1 2 3 4 8 7 3 1 3 2 3 3 3 3 1 3 6 6 6 4 5 3 2 4 6 5 3 5 6 2 4 2 7 10 14 14 14 14 12 11 11 9 9 9
17 17 17 10 6 12 6 4 4 5 3 1 1 1 1 2 2 1 0 1 0 1 4 1 2 1 8 4 7 4 2 7 4 6 10 4 9 3 4 3 3 5 3 3 2 3 2 4 4 2 5 4 4 2 3 2 4 3 3 1 1 1 2 2 2 3 2 2 6 3 3 5 10 2 2 2 4 8 12 14 14 14 14 12 11 10 9 8
16 16 16 10 1 3 3 2 7 0 1 2 1 0 1 2 1 0 1 2 0 1 2 4 3 8 7 2 3 10 10 5 1 7 4 5 8 7 6 2 1 2 6 9 10 4 2 1 1 2 5 4 5 4 2 4 1 4 1 4 3 2 1 1 1 1 1 4 2 3 1 2 6 1 0 3 0 2 3 4 9 12 14 14 11 9 7 7
15 13 15 10 5 0 2 3 2 1 2 0 1 3 2 1 0 2 1 0 1 1 2 3 2 1 7 7 3 8 1 6 10 10 5 5 7 6 4 3 1 1 1 3 6 3 3 3 2 2 1 3 2 2 1 2 1 2 2 3 4 4 2 2 1 1 2 2 4 2 1 3 5 1 3 1 2 2 3 5 7 12 14 12 10 8 7 6
13 10 12 8 1 1 3 2 2 1 1 1 2 1 1 1 1 1 1 2 1 1 2 1 2 0 3 1 4 7 6 4 5 8 7 6 9 12 10 6 8 1 0 6 3 2 4 5 2 1 3 5 3 4 4 2 5 3 5 4 4 1 1 2 3 2 3 2 3 2 4 5 12 12 5 3 5 5 5 6 6 7 10 12 10 7 5 5
11 6 6 6 2 3 3 2 1 1 0 2 1 0 0 1 0 0 1 2 1 3 1 1 3 4 2 1 4 5 2 4 6 4 2 4 4 6 7 10 4 1 3 4 4 5 3 1 3 1 2 3 6 3 5 1 4 6 5 5 4 5 2 3 2 0 3 3 1 1 4 8 10 4 6 6 7 5 6 6 6 5 9 11 9 7 5 4
9 5 2 3 4 3 1 2 1 1 2 2 1 0 1 1 0 3 1 1 1 3 3 2 3 1 4 3 2 4 2 1 5 4 4 1 3 3 3 9 12 5 1 1 4 4 3 1 4 6 2 6 4 5 3 2 5 4 2 4 2 1 3 5 2 3 3 4 2 2 2 4 3 4 4 4 5 5 4 3 1 3 7 6 4 2 3 4
7 3 2 1 0 2 3 1 1 2 2 2 2 1 1 0 1 1 0 0 1 1 1 1 2 0 2 2 2 1 2 1 5 2 7 3 3 2 5 7 9 6 2 2 2 2 1 4 3 2 2 5 3 1 1 3 2 1 1 3 1 2 2 5 3 4 3 4 6 4 5 2 2 4 4 2 3 4 4 4 4 5 4 2 4 4 4 4
2 1 1 2 3 4 4 2 3 3 2 2 1 3 1 0 0 1 1 1 2 1 0 2 0 0 1 1 0 2 1 2 4 0 3 3 1 1 0 2 6 7 4 2 2 2 2 2 1 1 0 3 3 3 1 3 3 2 2 2 2 1 1 1 3 3 2 3 6 1 7 6 3 4 6 3 3 4 2 2 1 4 2 1 3 4 5 5
2 3 1 4 3 5 5 3 3 1 1 2 1 1 0 0 0 1 2 1 1 3 1 1 2 2 1 1 1 3 2 2 1 1 1 0 1 2 2 2 0 2 2 1 1 0 2 5 3 1 2 1 3 3 2 3 1 3 1 4 4 2 1 0 4 1 3 4 3 1 6 11 5 4 1 3 1 2 3 5 2 2 1 4 5 5 5 6
2 2 1 3 4 5 3 3 4 1 2 3 3 4 2 1 1 1 1 1 3 1 0 0 1 2 1 1 1 3 6 1 5 1 1 2 1 0 1 1 2 2 2 1 1 1 3 4 2 1 2 1 1 2 2 2 1 4 2 2 4 0 1 2 1 3 4 4 5 4 8 11 5 5 2 5 7 8 5 3 4 5 5 5 6 8 8 9
2 1 1 2 3 4 4 4 2 1 0 5 1 2 2 1 1 1 2 1 1 1 0 1 0 2 1 1 2 1 5 2 2 1 0 1 0 1 1 2 1 1 1 2 0 1 1 2 0 3 2 2 1 1 3 2 4 2 1 2 3 1 1 2 1 2 0 7 5 3 2 8 3 1 3 5 8 7 7 6 5 6 7 8 9 10 11 11
2 0 1 2 5 3 4 1 5 5 3 2 2 0 1 2 1 1 2 2 2 1 1 1 1 2 2 1 3 2 2 2 1 1 1 1 1 1 2 1 3 3 2 1 2 1 0 0 3 2 1 1 1 2 3 4 6 2 1 0 1 1 0 1 1 2 2 5 3 6 7 3 2 2 3 5 5 5 4 3 3 3 4 6 8 10 10 11
1 1 0 3 6 3 2 10 11 6 4 1 3 3 0 2 3 2 2 1 0 2 0 2 2 1 1 1 1 1 1 2 1 1 2 1 2 1 2 2 1 3 1 1 0 2 0 1 4 5 5 1 1 2 3 5 3 2 2 2 2 2 2 3 4 4 1 2 3 2 12 9 4 3 2 3 3 4 1 2 7 8 11 12 11 12 13 13
0 1 2 4 6 2 2 5 5 1 2 2 1 1 2 1 2 2 1 0 2 1 2 3 3 4 2 2 0 2 0 1 1 1 0 1 1 2 2 3 2 3 4 2 3 2 2 1 1 5 3 6 4 3 3 2 2 2 3 1 1 0 1 2 4 1 0 3 2 1 4 8 3 2 3 3 2 2 1 5 10 10 12 13 13 13 14 13
1 0 1 4 5 3 9 5 1 4 4 2 5 2 3 2 2 1 1 2 0 1 2 3 1 2 1 0 3 1 2 2 0 1 1 0 2 1 2 2 1 1 2 1 2 1 2 1 3 4 2 1 2 1 1 1 2 0 0 1 2 2 0 3 4 3 4 1 3 3 5 8 2 2 1 3 2 3 6 8 13 12 12 12 13 13 14 14
0 1 2 1 3 0 2 1 1 2 1 3 2 3 2 2 2 2 2 2 1 1 1 1 1 3 3 1 2 2 4 1 1 1 2 1 1 2 3 1 1 0 1 3 2 1 2 1 0 5 4 1 2 1 2 2 1 1 1 2 1 4 5 3 3 0 3 8 10 6 12 3 4 2 1 3 5 8 14 15 14 16 14 13 14 13 12 14
1 0 1 5 7 3 1 1 5 6 1 4 2 3 1 2 3 2 2 1 2 1 1 1 1 2 3 1 2 2 1 0 2 0 2 3 1 1 2 1 1 1 1 1 1 2 2 1 1 4 5 7 7 7 5 4 3 2 2 3 4 5 5 1 4 2 5 2 8 5 11 8 6 2 5 9 14 16 14 16 17 15 15 13 12 12 14 13
1 1 2 2 5 5 6 1 3 6 7 4 3 0 1 2 1 1 1 2 1 1 2 3 1 1 3 1 1 1 1 1 0 1 2 1 2 1 1 1 1 0 4 6 4 1 1 1 2 3 4 6 7 4 4 2 5 6 2 6 6 6 5 4 1 4 12 7 8 14 15 19 19 20 17 16 14 17 18 17 19 19 17 14 13 12 12 12
0 1 1 1 1 5 3 1 2 1 3 4 2 3 2 2 0 0 0 0 2 1 1 1 1 3 1 1 1 1 0 1 2 2 3 2 1 1 2 0 3 2 2 3 3 3 1 2 4 5 9 10 8 7 3 1 8 14 13 11 7 8 8 9 9 11 2 4 16 9 16 15 17 16 15 17 17 16 17 17 17 16 16 16 15 16 16 16
0 0 1 1 0 0 0 2 2 4 3 1 1 1 4 3 1 2 0 1 1 2 0 1 1 3 4 2 4 1 2 0 1 2 3 1 1 1 1 1 2 2 4 1 1 2 1 2 1 2 9 8 10 11 7 5 9 13 10 10 11 10 10 13 16 19 13 11 15 4 5 14 20 18 19 19 18 16 17 19 18 18 16 16 16 17 17 18
2 1 1 2 0 0 1 1 2 5 6 2 2 1 2 3 5 3 1 2 1 1 2 1 4 6 3 1 1 1 2 1 1 1 3 2 3 3 2 1 2 2 1 2 1 0 1 3 2 2 10 11 8 10 8 8 8 12 13 12 13 12 16 17 18 17 15 18 17 18 20 21 20 21 19 18 16 16 16 15 15 15 16 16 16 16 17 17
1 1 1 3 4 3 0 1 1 1 2 1 2 3 3 7 6 3 2 3 2 2 2 3 2 4 3 2 0 1 3 2 1 2 4 3 2 4 2 2 3 1 1 2 1 0 2 0 5 0 3 9 7 2 2 4 7 13 16 13 15 14 15 17 17 16 15 17 20 22 23 21 17 17 17 15 13 12 12 14 16 16 15 14 15 16 17 18
1 2 2 4 2 0 1 0 1 1 1 1 1 2 3 5 4 5 2 1 2 3 6 4 5 6 2 1 2 5 2 3 2 2 5 5 2 4 3 1 5 3 3 2 2 0 1 1 3 2 3 5 1 4 5 7 10 13 16 16 12 9 7 8 9 9 8 11 11 13 13 13 10 8 9 10 11 12 14 16 17 14 15 15 16 18 19 19
1 1 1 1 2 1 0 1 0 0 1 1 1 4 3 7 4 5 2 3 2 1 3 2 5 4 2 1 8 6 1 4 3 1 2 1 2 2 1 3 7 5 4 3 1 2 2 2 1 0 6 6 1 2 3 10 12 10 4 5 6 6 6 4 9 7 12 9 9 10 11 8 12 13 15 15 14 14 15 15 16 18 17 16 17 18 19 19
Wind_Direction
19 18 17 15 15 15 14 14 15 14 13 11 9 7 4 0 2 0 359 357 352 350 351 350 332 336 312 291 255 242 285 329 7 21 30 12 348 341 336 339 340 338 336 318 8 16 35 34 26 329 77 49 359 40 341 34 350 326 58 104 77 73 75 29 57 66 106 111 92 73 80 93 92 84 92 75 67 73 76 71 72 72 67 62 56 40 25 19
18 15 14 13 11 11 11 10 10 12 9 7 5 2 358 358 355 359 358 356 353 351 358 352 333 348 316 304 190 165 251 339 16 17 27 352 348 343 341 338 343 344 338 15 13 9 35 30 17 45 69 58 342 54 336 50 6 54 74 72 89 47 54 51 75 89 106 95 93 80 70 76 65 77 65 92 62 70 73 64 66 70 60 55 46 38 33 24
16 14 12 10 10 8 8 8 7 6 6 3 1 356 355 352 351 352 359 1 351 352 0 3 341 9 69 71 105 6 306 220 2 19 351 349 346 341 341 341 343 343 2 359 354 357 36 12 339 73 55 75 22 63 63 40 34 20 83 78 72 84 83 67 77 82 87 106 96 86 70 67 52 65 78 83 80 59 54 51 50 52 52 47 47 42 37 32
15 13 11 9 8 7 7 6 7 5 4 2 359 355 350 349 348 350 352 355 1 351 357 9 352 16 60 59 2 354 323 273 32 348 347 342 340 341 339 341 342 339 325 282 319 3 247 276 52 58 69 63 56 52 48 357 69 1 65 83 105 99 90 57 69 71 82 90 94 88 86 70 49 47 51 120 75 54 58 44 46 51 50 49 52 48 44 38
15 12 10 9 7 6 6 5 4 5 3 2 1 358 351 348 348 349 348 352 353 355 350 5 335 2 73 78 356 299 135 354 30 351 336 339 337 338 337 338 337 328 313 307 303 21 56 61 71 54 54 74 65 65 53 60 82 87 63 82 94 99 86 75 71 65 78 81 89 82 70 80 72 47 45 53 81 59 43 45 47 54 52 51 56 55 57 55
14 12 10 8 6 5 3 3 2 1 4 4 3 1 356 350 346 344 345 344 350 355 2 19 357 350 37 46 27 189 140 55 334 331 337 335 333 336 334 328 337 359 24 32 33 43 49 41 64 49 54 58 57 74 47 52 252 90 61 60 64 78 95 80 80 59 88 94 81 79 77 87 83 75 54 60 66 72 59 60 61 61 62 66 58 56 58 59
13 12 9 7 4 4 2 1 0 0 360 4 5 2 359 352 346 346 344 344 348 355 11 23 40 300 6 14 187 62 69 104 329 331 335 336 332 333 332 342 360 18 29 20 22 49 53 62 65 80 87 79 64 81 74 64 77 91 92 78 71 74 80 82 75 77 80 83 80 86 85 71 83 73 51 64 61 64 61 62 60 61 64 69 76 69 66 59
13 11 9 6 3 3 1 1 359 359 358 357 358 1 358 354 350 347 348 347 351 355 359 25 17 2 297 286 325 59 45 1 337 335 334 336 335 335 339 18 356 12 29 21 9 31 49 49 50 67 61 83 105 90 90 77 57 92 94 93 90 82 81 81 81 83 82 79 88 81 72 68 68 82 73 58 58 59 62 61 60 63 70 71 73 70 75 72
11 9 7 5 2 360 0 359 358 358 358 357 351 349 354 353 350 348 349 349 359 3 7 358 14 22 174 225 273 61 17 341 322 328 339 340 333 316 19 12 341 20 31 21 17 24 60 48 52 35 109 91 91 89 72 97 56 72 99 99 95 85 81 77 77 71 66 84 95 73 71 75 86 77 56 54 55 56 60 58 56 66 68 68 65 64 64 65
9 6 5 3 1 359 358 358 358 357 357 356 350 343 342 349 347 344 348 354 5 13 11 358 358 354 46 305 90 62 16 303 335 339 343 339 325 353 20 8 359 17 34 16 26 16 38 52 71 49 78 68 76 68 78 84 119 114 104 102 98 95 86 66 70 63 60 63 69 88 74 53 48 222 89 46 45 45 57 53 54 65 67 66 66 66 61 63
5 4 1 1 358 358 356 356 356 356 355 355 349 341 337 340 344 342 341 352 13 14 12 7 352 24 43 312 65 70 358 342 349 344 338 341 351 25 8 360 354 20 30 43 38 5 337 328 8 70 57 82 81 66 77 100 124 110 109 104 96 94 69 62 76 56 86 63 33 86 82 67 45 60 74 53 49 45 60 59 61 65 69 67 67 68 64 66
2 1 358 356 356 354 353 352 353 352 354 353 346 340 333 337 343 343 340 339 20 15 14 16 77 102 209 58 55 36 319 334 333 342 339 347 352 354 353 4 9 19 27 47 26 10 352 278 89 35 111 162 87 94 80 99 82 138 130 97 102 93 65 28 22 10 314 114 288 290 104 54 36 66 64 65 64 58 67 76 71 72 72 72 74 72 68 66
359 357 356 354 353 351 349 348 348 348 349 350 342 333 328 348 360 351 345 357 10 9 15 37 70 114 237 57 37 169 305 309 297 336 359 355 321 218 171 23 26 29 16 44 16 351 329 72 71 67 25 51 76 53 139 175 42 107 59 102 125 110 62 21 12 2 277 72 321 186 231 63 58 80 93 87 111 107 106 99 92 87 85 86 87 82 78 75
359 356 355 353 350 348 345 345 345 344 345 346 342 333 337 5 8 3 358 346 341 2 30 28 28 21 62 89 153 246 269 281 279 10 5 339 6 340 200 24 52 34 20 40 21 350 354 72 85 96 49 47 93 142 130 89 354 114 277 10 55 150 67 32 19 350 252 12 344 230 271 141 133 139 140 142 146 147 129 121 119 112 106 101 95 95 87 78
359 357 354 352 349 347 344 343 343 341 341 340 335 332 342 5 14 15 8 346 354 349 169 260 36 210 46 93 261 252 265 217 10 10 1 360 359 341 355 334 0 20 27 54 48 355 293 64 58 53 55 300 161 141 82 77 61 28 218 99 68 46 104 40 35 28 3 45 359 284 239 138 159 158 155 158 153 179 144 135 127 124 113 104 103 99 91 84
358 356 355 352 350 347 343 342 340 337 335 332 324 311 348 12 29 30 31 24 348 353 214 37 2 33 100 65 23 229 32 13 354 335 351 357 357 345 305 295 282 345 29 59 138 259 32 61 56 38 91 92 48 91 116 117 68 36 360 109 73 42 102 194 51 28 23 300 255 322 53 131 185 172 156 163 172 193 168 152 144 129 130 115 96 90 96 97
356 356 354 352 350 346 343 343 342 337 332 328 312 273 288 344 35 70 56 36 358 326 54 23 325 242 63 277 245 356 5 342 325 324 343 23 335 313 313 9 17 331 358 67 20 15 11 56 245 173 43 56 312 261 115 79 96 63 11 85 18 356 264 139 151 38 352 315 271 352 201 150 108 155 168 175 189 198 186 171 165 161 124 101 97 96 91 94
357 355 353 351 350 347 344 348 346 345 340 337 308 307 332 355 24 47 9 21 10 66 95 140 149 5 119 59 17 331 328 302 335 310 271 354 323 350 25 33 330 303 317 15 34 25 324 70 318 83 58 37 25 359 54 103 57 117 122 125 113 84 41 37 355 6 347 29 272 107 131 135 151 159 175 181 189 209 204 188 181 180 152 147 132 112 102 97
357 355 353 351 349 347 345 352 352 354 348 346 42 201 332 292 25 63 27 340 39 358 42 359 359 64 50 334 278 284 299 305 297 317 348 2 324 298 58 157 38 8 107 31 21 348 0 110 118 48 30 19 17 8 23 28 329 93 70 97 133 149 91 57 3 360 354 3 60 50 189 165 168 180 183 188 197 209 207 209 210 197 189 179 181 167 163 144
357 355 353 351 349 348 345 353 355 357 2 38 0 119 214 254 29 13 5 37 57 53 68 347 175 274 298 20 338 310 268 359 319 4 6 359 319 318 40 352 354 61 45 75 324 47 291 71 49 49 38 7 10 9 325 320 321 56 81 100 92 115 111 172 244 345 5 287 40 350 334 191 189 194 191 195 195 220 220 213 210 205 199 197 187 185 186 200
357 355 352 351 350 347 347 352 0 356 16 58 42 50 48 353 69 93 32 59 165 7 34 76 31 348 358 322 323 350 5 319 121 5 11 303 184 299 2 335 319 76 34 294 43 331 257 76 51 28 340 318 324 323 248 253 271 350 78 81 96 331 116 40 322 356 334 286 155 205 249 228 218 208 203 197 206 217 212 213 211 206 206 204 205 200 204 199
357 355 353 350 349 348 348 355 9 21 36 45 63 78 103 88 344 7 293 82 45 34 74 49 256 10 194 242 318 319 212 264 358 9 354 1 1 354 352 43 50 57 338 310 228 42 51 69 42 354 323 254 263 279 232 255 152 36 348 35 240 61 328 292 299 349 354 273 228 185 224 226 220 216 211 209 212 218 215 213 209 205 205 208 207 214 212 205
356 353 353 351 349 346 350 347 25 29 42 24 53 68 85 75 321 188 265 126 92 324 32 17 30 15 2 181 131 210 345 36 334 355 359 338 352 53 325 37 37 38 34 1 154 114 86 77 18 341 216 218 140 59 212 169 154 335 232 264 349 36 316 257 142 341 9 306 327 221 246 250 228 218 217 215 215 219 217 214 215 213 210 207 205 203 207 213
356 354 352 351 349 345 338 353 255 30 45 75 81 65 145 234 216 223 210 69 101 42 36 43 84 56 30 360 1 358 34 31 336 343 353 1 34 290 20 22 56 50 46 32 55 67 63 27 2 327 191 204 95 41 126 235 167 85 346 346 295 315 352 294 357 320 289 218 286 268 258 255 227 216 217 218 213 220 214 213 221 219 227 226 226 238 234 229
355 354 353 350 350 341 340 357 36 48 234 14 66 66 222 242 223 305 212 164 201 96 170 151 216 80 349 250 333 208 65 158 56 269 325 10 352 283 57 171 306 41 42 337 85 82 60 26 5 327 133 98 299 98 31 323 245 148 116 350 6 317 297 300 293 300 245 228 153 298 298 253 189 217 222 204 200 216 215 215 215 215 215 217 223 226 225 231
355 354 355 350 349 346 271 10 53 151 73 49 17 26 311 202 220 258 328 83 90 332 203 19 194 33 188 4 7 51 264 73 302 4 308 13 215 13 197 54 349 116 180 46 70 69 58 23 6 7 82 98 82 64 22 300 288 258 121 201 112 267 277 275 277 244 265 284 97 274 298 291 167 209 214 207 206 214 208 218 218 215 214 212 217 220 220 222
355 354 358 358 354 343 264 71 50 219 33 62 87 326 309 219 198 257 252 1 52 19 3 351 266 53 267 346 310 230 11 13 42 332 15 23 10 229 22 16 138 64 35 305 217 70 301 31 36 80 172 171 218 118 53 328 303 284 98 229 274 266 260 253 248 237 276 356 214 187 248 277 296 293 16 224 213 215 215 218 220 219 216 214 216 222 225 226
355 355 359 9 16 20 72 107 87 36 43 23 10 322 285 145 192 256 222 68 306 353 347 336 24 324 35 327 353 52 91 289 306 72 66 311 250 54 70 46 43 1 152 262 60 76 16 26 17 21 2 38 46 351 329 281 300 3 57 294 290 284 276 250 226 244 318 335 294 167 163 263 251 223 104 135 219 224 229 224 218 218 218 216 220 226 231 236
357 356 356 10 38 57 45 63 65 51 7 32 346 275 99 178 239 274 169 163 86 80 154 267 150 52 354 303 41 30 354 2 26 334 332 229 38 254 70 58 94 91 81 267 77 141 82 32 29 341 5 22 343 335 307 263 317 71 319 254 279 258 256 235 234 231 190 280 279 123 163 265 285 237 154 97 240 245 237 227 223 214 211 212 216 224 231 240
356 358 356 354 176 15 19 51 58 214 331 13 301 164 189 263 256 222 25 290 116 279 55 295 7 321 319 318 65 12 27 4 159 306 12 47 336 37 76 353 188 16 68 51 72 60 73 86 313 11 31 330 299 319 316 259 190 313 220 245 214 215 162 193 272 269 246 243 245 54 272 289 298 304 316 178 171 320 309 219 217 211 205 207 210 215 224 237
358 2 4 349 58 102 270 61 40 96 57 28 244 209 245 276 188 95 107 230 40 283 198 40 8 313 16 31 36 359 89 7 355 353 8 356 4 45 20 189 271 156 140 127 87 88 128 153 158 62 243 301 234 246 176 224 275 278 248 271 260 190 191 203 140 210 248 247 102 8 10 268 239 243 92 54 80 242 297 288 225 210 203 196 198 209 219 236
355 9 19 29 32 254 25 33 3 71 63 153 216 288 292 255 16 22 179 9 231 5 32 339 96 36 53 195 74 360 357 342 33 21 25 15 29 29 12 29 343 326 105 22 22 124 115 73 334 245 157 359 359 267 172 212 250 255 254 272 303 327 267 214 162 223 192 290 94 45 320 262 231 250 333 29 346 321 275 275 295 251 203 187 190 197 214 223
351 0 56 33 357 53 48 339 347 330 149 187 196 69 1 84 70 310 276 342 354 4 90 322 350 359 328 235 45 351 275 31 328 54 318 15 64 84 60 43 330 330 347 17 301 1 119 38 27 104 212 9 325 350 12 208 13 359 4 344 341 342 356 286 321 353 275 122 40 184 15 263 284 285 41 354 356 330 310 302 291 271 190 171 181 196 203 219
350 3 53 29 66 85 332 323 315 222 250 183 258 306 58 44 232 74 272 296 4 4 0 342 350 248 16 53 22 334 88 101 354 3 7 34 27 42 56 44 22 5 349 2 11 1 335 186 77 345 27 343 22 49 16 305 316 43 263 329 7 23 342 310 311 298 349 328 300 131 307 258 292 88 346 21 326 340 342 332 330 115 131 141 151 172 217 242
338 60 80 71 155 100 16 331 271 245 228 239 44 71 98 281 210 208 244 277 332 335 342 347 302 347 52 79 352 232 294 75 40 346 28 26 44 35 7 358 5 5 250 275 103 251 209 275 63 340 310 313 22 42 258 303 221 198 330 248 281 42 335 268 18 302 322 322 298 177 236 299 288 76 55 5 54 46 43 62 101 108 108 111 191 201 224 251
319 298 344 33 350 2 357 331 297 239 248 359 79 42 53 144 80 130 66 348 86 282 35 246 167 112 26 97 169 63 203 295 20 58 43 42 99 68 331 7 2 6 358 21 342 335 285 205 51 98 39 35 15 320 34 292 334 28 245 34 45 7 243 291 136 100 176 193 242 236 278 256 186 114 25 44 53 78 62 93 119 151 117 1 229 232 254 278
10 322 275 349 330 353 336 323 309 277 326 82 92 97 125 269 274 224 22 354 15 332 129 282 31 12 14 350 322 345 41 279 3 320 63 269 118 45 64 110 186 359 45 324 114 145 329 309 89 221 181 122 310 292 23 13 305 286 308 76 103 60 356 287 312 200 238 275 274 96 272 289 4 326 114 96 67 169 219 214 209 252 278 263 258 261 278 292
0 37 260 289 334 329 320 321 306 325 73 82 64 107 210 130 189 315 174 215 208 190 332 33 84 319 227 300 32 347 345 278 14 350 82 331 88 301 283 336 129 20 338 221 302 45 337 288 133 339 310 53 303 262 223 116 315 12 9 61 275 337 230 128 250 314 328 280 298 262 299 278 260 280 48 34 13 355 334 273 258 265 270 285 291 288 288 293
87 356 325 34 0 339 334 315 336 314 73 65 156 142 217 298 147 182 176 275 182 241 80 75 23 37 347 23 2 212 331 29 358 39 297 41 339 111 318 310 96 185 22 243 235 97 231 302 281 152 244 11 328 298 305 16 108 78 194 123 31 253 286 301 15 308 318 283 333 273 78 289 96 67 352 355 4 12 0 357 349 338 331 320 303 299 298 300
357 64 308 25 344 347 313 273 50 38 49 109 182 56 81 126 164 199 176 233 92 299 90 129 124 111 39 44 356 1 23 18 2 35 328 16 323 124 281 193 322 7 6 297 62 302 109 38 295 97 221 226 232 24 350 356 329 336 245 52 157 100 310 265 223 237 274 301 275 299 295 261 54 73 354 359 29 32 30 23 20 350 308 293 291 294 295 300
244 107 255 360 341 331 285 37 44 24 74 350 28 96 326 126 159 112 135 248 137 310 319 119 158 105 164 173 135 2 44 40 352 44 17 128 310 339 131 348 356 356 329 259 55 22 208 190 282 324 328 321 58 49 328 313 314 294 312 11 352 302 271 293 276 115 6 225 273 282 279 279 301 109 344 38 83 90 92 18 336 326 323 317 313 310 307 303
112 55 297 8 334 313 78 56 33 351 62 74 57 337 71 128 85 91 89 175 329 93 320 116 64 112 136 82 5 142 126 82 67 70 287 329 86 311 63 356 346 324 310 6 4 31 345 18 281 291 291 313 1 9 32 309 269 315 304 302 11 16 257 245 277 206 99 216 65 302 310 297 66 65 93 106 126 153 288 293 317 317 311 312 311 307 303 298
35 241 37 359 345 31 61 83 109 48 48 349 303 23 334 16 46 358 334 348 328 309 35 49 75 106 167 171 165 130 241 119 172 43 97 266 241 1 33 17 338 302 282 99 224 142 257 351 295 259 260 103 155 157 177 65 183 169 163 8 244 232 262 279 289 12 286 254 272 204 216 251 142 110 127 160 203 247 279 305 316 315 313 311 310 307 302 300
170 300 346 141 355 55 67 42 88 33 81 328 57 56 2 26 18 44 11 18 350 1 82 123 147 345 106 147 127 135 199 129 203 151 167 178 184 62 19 20 312 20 305 56 316 124 288 105 306 300 305 192 163 178 186 137 236 227 247 172 195 81 63 76 88 111 273 222 226 262 268 272 92 249 176 238 239 289 312 316 314 311 310 308 308 303 296 293
137 239 270 312 1 23 117 169 134 129 131 108 80 71 11 59 29 345 327 47 325 34 190 76 23 155 94 133 81 105 307 304 142 102 25 189 186 44 90 89 351 179 65 297 29 119 251 290 291 327 342 338 340 330 334 328 325 306 236 210 182 172 130 159 264 177 255 241 187 226 260 259 306 267 272 279 299 308 310 313 311 305 305 303 297 295 294 292
17 133 320 357 11 46 79 48 87 128 135 165 96 258 138 102 95 21 285 91 337 93 16 109 88 138 105 178 114 70 124 350 218 169 188 197 216 190 15 329 155 325 108 90 70 50 153 30 255 247 247 272 283 317 85 18 316 277 203 186 200 212 221 240 281 244 247 248 237 239 254 283 285 285 292 300 305 310 315 316 312 310 309 306 299 295 293 289
199 86 341 341 349 58 87 54 76 104 151 203 111 172 97 95 213 163 130 261 153 311 93 15 188 181 191 170 162 131 125 182 68 146 203 182 127 280 14 14 313 250 194 109 72 102 109 252 217 226 252 253 280 288 268 240 262 271 276 276 257 223 205 213 220 240 108 316 275 244 247 259 276 290 296 298 301 303 307 306 300 298 302 305 304 302 299 298
128 196 43 231 190 65 91 55 63 90 48 85 87 48 141 135 177 163 204 37 343 262 266 149 189 296 190 202 155 151 171 220 118 182 132 330 200 155 192 351 246 338 349 89 329 231 208 263 112 129 257 240 268 279 281 260 248 264 268 268 264 249 231 224 236 242 250 256 257 274 306 289 285 289 293 294 296 299 300 296 290 291 293 290 290 295 295 294
54 108 128 298 149 259 33 127 92 108 85 96 117 135 170 176 182 192 154 133 46 185 265 239 235 200 197 157 230 83 165 322 284 161 209 158 192 151 192 338 221 2 79 110 61 35 204 251 187 194 293 290 271 266 273 260 263 270 262 255 252 248 242 238 248 250 241 249 261 275 279 274 278 283 283 285 290 291 290 288 286 283 282 285 289 289 290 293
178 174 155 2 72 120 212 138 128 132 91 263 125 222 160 179 166 165 256 186 165 205 139 256 246 124 159 173 227 221 231 244 305 302 172 149 167 219 251 216 138 79 90 168 130 202 220 320 86 9 296 288 305 336 262 256 272 274 273 260 258 251 254 253 256 261 257 262 262 263 268 273 269 271 279 281 281 282 284 283 281 284 287 291 294 296 298 301
51 0 129 132 89 74 144 18 167 122 128 224 134 185 153 197 198 167 134 264 293 170 183 211 118 109 64 251 254 266 263 228 188 308 166 192 292 167 200 184 151 152 172 153 196 52 255 254 81 113 299 274 39 336 327 314 290 275 281 281 259 228 233 255 239 225 203 239 248 256 264 268 273 255 246 266 279 281 284 286 288 292 297 299 301 304 304 302
55 102 311 102 102 293 198 100 61 144 172 203 105 170 199 201 152 155 116 189 182 291 250 151 150 116 132 202 239 229 288 195 250 80 194 89 72 117 300 151 176 168 173 179 50 204 209 177 187 81 296 261 61 328 315 304 291 281 243 221 201 184 215 269 269 222 213 235 264 262 255 271 296 303 298 293 290 291 291 295 303 307 306 302 299 299 298 297